| time (UTC) | temp C | wind direction | speed KPH | gust KPH | rain 1hr cm | rain 24hr cm | rain mn cm | humidity % | barometer mb |
| 20260503211826 | 7 | 0 | 0.0 | 0.0 | 14.33 | 0.00 | 0.00 | 84 | 1021.5 |
| 20260503211822 | 7 | 0 | 0.0 | 0.0 | 14.33 | 0.00 | 0.00 | 84 | 1021.5 |
| 20260503211327 | 7 | 0 | 0.0 | 0.0 | 14.33 | 0.00 | 0.00 | 83 | 1021.4 |
| 20260503211322 | 7 | 0 | 0.0 | 0.0 | 14.33 | 0.00 | 0.00 | 83 | 1021.4 |
| 20260503210824 | 7 | 0 | 0.0 | 0.0 | 14.33 | 0.00 | 0.00 | 80 | 1021.3 |
| 20260503210822 | 7 | 0 | 0.0 | 0.0 | 14.33 | 0.00 | 0.00 | 80 | 1021.3 |
| 20260503210324 | 7 | 0 | 0.0 | 0.0 | 14.33 | 0.00 | 0.00 | 85 | 1021.4 |
| 20260503210322 | 7 | 0 | 0.0 | 0.0 | 14.33 | 0.00 | 0.00 | 85 | 1021.4 |
| 20260503205826 | 7 | 0 | 0.0 | 0.0 | 14.33 | 0.00 | 0.00 | 92 | 1021.4 |
| 20260503205822 | 7 | 0 | 0.0 | 0.0 | 14.33 | 0.00 | 0.00 | 92 | 1021.4 |
| 20260503205324 | 7 | 229 | 3.2 | 17.7 | 14.33 | 0.00 | 0.00 | 93 | 1021.3 |
| 20260503205322 | 7 | 229 | 3.2 | 17.7 | 14.33 | 0.00 | 0.00 | 93 | 1021.3 |
| 20260503204823 | 7 | 273 | 17.7 | 25.7 | 14.33 | 0.00 | 0.00 | 93 | 1021.6 |
| 20260503204325 | 7 | 194 | 30.6 | 46.7 | 14.33 | 0.00 | 0.00 | 92 | 1021.5 |
| 20260503204323 | 7 | 194 | 30.6 | 46.7 | 14.33 | 0.00 | 0.00 | 92 | 1021.5 |
| 20260503203823 | 7 | 267 | 32.2 | 40.2 | 14.33 | 0.00 | 0.00 | 89 | 1021.9 |
| 20260503203323 | 7 | 271 | 35.4 | 48.3 | 14.33 | 0.00 | 0.00 | 85 | 1022.0 |
| 20260503202822 | 7 | 274 | 33.8 | 45.1 | 14.33 | 0.00 | 0.00 | 86 | 1022.0 |
| 20260503202323 | 7 | 136 | 41.8 | 54.7 | 14.33 | 0.00 | 0.00 | 82 | 1021.8 |
| 20260503201822 | 7 | 264 | 27.4 | 38.6 | 14.33 | 0.00 | 0.00 | 79 | 1021.9 |
| 20260503201322 | 7 | 281 | 40.2 | 53.1 | 14.33 | 0.00 | 0.00 | 78 | 1021.9 |
| 20260503200822 | 7 | 312 | 38.6 | 59.5 | 14.33 | 0.00 | 0.00 | 79 | 1021.9 |
| 20260503200322 | 8 | 284 | 40.2 | 57.9 | 14.33 | 0.00 | 0.00 | 79 | 1021.8 |
| 20260503195822 | 8 | 338 | 33.8 | 46.7 | 14.33 | 0.00 | 0.00 | 79 | 1022.1 |
| 20260503195323 | 8 | 260 | 27.4 | 35.4 | 14.33 | 0.00 | 0.00 | 79 | 1022.2 |
| 20260503194822 | 8 | 290 | 37.0 | 46.7 | 14.33 | 0.00 | 0.00 | 82 | 1022.1 |
| 20260503194322 | 8 | 66 | 37.0 | 48.3 | 14.33 | 0.00 | 0.00 | 80 | 1022.1 |
| 20260503193822 | 8 | 359 | 30.6 | 54.7 | 14.33 | 0.00 | 0.00 | 80 | 1022.2 |
| 20260503193322 | 10 | 359 | 0.0 | 3.2 | 14.33 | 0.00 | 0.00 | 74 | 1022.1 |
| 20260503192823 | 10 | 356 | 9.7 | 56.3 | 14.33 | 0.00 | 0.00 | 65 | 1022.2 |
| 20260503192323 | 10 | 210 | 38.6 | 56.3 | 14.33 | 0.00 | 0.00 | 65 | 1022.2 |
| 20260503191823 | 10 | 359 | 25.7 | 57.9 | 14.33 | 0.00 | 0.00 | 65 | 1022.1 |
| 20260503191322 | 10 | 4 | 29.0 | 46.7 | 14.33 | 0.00 | 0.00 | 64 | 1022.0 |
| 20260503190822 | 10 | 253 | 35.4 | 49.9 | 14.33 | 0.00 | 0.00 | 60 | 1022.2 |
| 20260503190322 | 11 | 339 | 6.4 | 51.5 | 14.33 | 0.00 | 0.00 | 56 | 1022.1 |
| 20260503185822 | 11 | 0 | 0.0 | 0.0 | 14.33 | 0.00 | 0.00 | 59 | 1022.1 |
| 20260503185322 | 11 | 304 | 0.0 | 4.8 | 14.33 | 0.00 | 0.00 | 58 | 1022.0 |
| 20260503184822 | 11 | 0 | 0.0 | 0.0 | 14.33 | 0.00 | 0.00 | 58 | 1022.3 |
| 20260503184322 | 11 | 0 | 0.0 | 0.0 | 14.33 | 0.00 | 0.00 | 59 | 1022.2 |
| 20260503183823 | 11 | 0 | 0.0 | 0.0 | 14.33 | 0.00 | 0.00 | 58 | 1022.3 |
| 20260503183322 | 11 | 0 | 0.0 | 0.0 | 14.33 | 0.00 | 0.00 | 59 | 1022.3 |
| 20260503182822 | 11 | 304 | 11.3 | 48.3 | 14.33 | 0.00 | 0.00 | 59 | 1022.5 |
| 20260503182324 | 11 | 256 | 29.0 | 56.3 | 14.33 | 0.00 | 0.00 | 57 | 1022.3 |
| 20260503181822 | 11 | 285 | 32.2 | 45.1 | 14.33 | 0.00 | 0.00 | 54 | 1022.6 |
| 20260503181322 | 11 | 59 | 30.6 | 45.1 | 14.33 | 0.00 | 0.00 | 51 | 1022.5 |
| 20260503180822 | 11 | 0 | 0.0 | 0.0 | 14.33 | 0.00 | 0.00 | 53 | 1022.7 |
| 20260503180322 | 11 | 20 | 32.2 | 49.9 | 14.33 | 0.00 | 0.00 | 51 | 1022.7 |
| 20260503175823 | 11 | 314 | 1.6 | 16.1 | 14.33 | 0.00 | 0.00 | 53 | 1022.7 |
| 20260503175322 | 11 | 194 | 29.0 | 40.2 | 14.33 | 0.00 | 0.00 | 52 | 1022.8 |
| 20260503174823 | 11 | 49 | 25.7 | 33.8 | 14.33 | 0.00 | 0.00 | 52 | 1023.1 |
| 20260503174322 | 11 | 359 | 1.6 | 14.5 | 14.33 | 0.00 | 0.00 | 56 | 1023.2 |
| 20260503173822 | 11 | 0 | 0.0 | 0.0 | 14.33 | 0.00 | 0.00 | 57 | 1023.3 |
| 20260503173323 | 11 | 0 | 0.0 | 0.0 | 14.33 | 0.00 | 0.00 | 57 | 1023.5 |
| 20260503172822 | 10 | 0 | 0.0 | 0.0 | 14.33 | 0.00 | 0.00 | 54 | 1023.6 |
| 20260503171323 | 10 | 0 | 0.0 | 0.0 | 14.33 | 0.00 | 0.00 | 56 | 1023.8 |
| 20260503170822 | 10 | 0 | 0.0 | 0.0 | 14.33 | 0.00 | 0.00 | 55 | 1023.8 |
| 20260503170323 | 10 | 0 | 0.0 | 0.0 | 14.33 | 0.00 | 0.00 | 55 | 1023.9 |
| 20260503150823 | -5 | 315 | 0.0 | 4.8 | 14.33 | 0.00 | 0.00 | 58 | 1025.5 |
| 20260503150323 | 6 | 0 | 0.0 | 0.0 | 14.33 | 0.00 | 0.00 | 54 | 1025.5 |
| 20260503131324 | -17 | 0 | 0.0 | 0.0 | 14.33 | 0.00 | 0.00 | 80 | 1026.9 |
| 20260503130823 | -17 | 0 | 0.0 | 0.0 | 14.33 | 0.00 | 0.00 | 80 | 1026.9 |
| 20260503130323 | -17 | 0 | 0.0 | 0.0 | 14.33 | 0.00 | 0.00 | 82 | 1026.9 |
| 20260503110823 | -17 | 0 | 0.0 | 0.0 | 14.33 | 0.00 | 0.00 | 86 | 1026.3 |
| 20260503110323 | -17 | 277 | 12.9 | 24.1 | 14.33 | 0.00 | 0.00 | 86 | 1026.2 |
| 20260503090324 | -48 | 0 | 0.0 | 0.0 | 14.33 | 0.00 | 0.00 | 85 | 1027.1 |
| 20260503081324 | -48 | 0 | 0.0 | 0.0 | 14.33 | 0.00 | 0.00 | 83 | 1027.3 |
| 20260503080824 | -48 | 0 | 0.0 | 0.0 | 14.33 | 0.00 | 0.00 | 82 | 1027.4 |
| 20260503080324 | -48 | 0 | 0.0 | 0.0 | 14.33 | 0.00 | 0.00 | 81 | 1027.2 |
| 20260503072824 | -48 | 0 | 0.0 | 0.0 | 14.33 | 0.00 | 0.00 | 78 | 1027.1 |
| 20260503072324 | -48 | 0 | 0.0 | 0.0 | 14.33 | 0.00 | 0.00 | 77 | 1027.1 |
| 20260503071824 | -48 | 0 | 0.0 | 0.0 | 14.33 | 0.00 | 0.00 | 77 | 1027.1 |
| 20260503071324 | -48 | 0 | 0.0 | 0.0 | 14.33 | 0.00 | 0.00 | 76 | 1027.1 |
| 20260503070824 | -48 | 0 | 0.0 | 0.0 | 14.33 | 0.00 | 0.00 | 75 | 1027.1 |
| 20260503070324 | -48 | 0 | 0.0 | 0.0 | 14.33 | 0.00 | 0.00 | 74 | 1027.1 |
| 20260503060324 | -17 | 0 | 0.0 | 0.0 | 14.33 | 0.00 | 0.00 | 68 | 1027.6 |
| 20260503054824 | -48 | 0 | 0.0 | 0.0 | 14.33 | 0.00 | 0.00 | 67 | 1027.6 |
| 20260503054324 | -48 | 0 | 0.0 | 0.0 | 14.33 | 0.00 | 0.00 | 67 | 1027.7 |
| 20260503053824 | -48 | 0 | 0.0 | 0.0 | 14.33 | 0.00 | 0.00 | 65 | 1027.6 |
| 20260503053324 | -48 | 0 | 0.0 | 0.0 | 14.33 | 0.00 | 0.00 | 65 | 1027.7 |
| 20260503052824 | -48 | 0 | 0.0 | 0.0 | 14.33 | 0.00 | 0.00 | 64 | 1027.7 |
| 20260503052324 | -48 | 0 | 0.0 | 0.0 | 14.33 | 0.00 | 0.00 | 63 | 1028.0 |
| 20260503051824 | -48 | 0 | 0.0 | 0.0 | 14.33 | 0.00 | 0.00 | 63 | 1028.0 |
| 20260503051324 | -48 | 0 | 0.0 | 0.0 | 14.33 | 0.00 | 0.00 | 63 | 1027.9 |
| 20260503050824 | -48 | 0 | 0.0 | 0.0 | 14.33 | 0.00 | 0.00 | 62 | 1028.0 |
| 20260503050326 | -48 | 0 | 0.0 | 0.0 | 14.33 | 0.00 | 0.00 | 62 | 1027.9 |
| 20260503045824 | -48 | 0 | 0.0 | 0.0 | 14.33 | 0.00 | 0.00 | 60 | 1027.9 |
| 20260503045325 | -48 | 0 | 0.0 | 0.0 | 14.33 | 0.00 | 0.00 | 60 | 1027.9 |
| 20260503044824 | -48 | 0 | 0.0 | 0.0 | 14.33 | 0.00 | 0.00 | 60 | 1028.0 |
| 20260503044324 | -48 | 0 | 0.0 | 0.0 | 14.33 | 0.00 | 0.00 | 60 | 1028.1 |
| 20260503043824 | -47 | 0 | 0.0 | 0.0 | 14.33 | 0.00 | 0.00 | 59 | 1028.0 |
| 20260503043325 | -48 | 0 | 0.0 | 0.0 | 14.33 | 0.00 | 0.00 | 61 | 1028.1 |
| 20260503042824 | -47 | 0 | 0.0 | 0.0 | 14.33 | 0.00 | 0.00 | 60 | 1028.1 |
| 20260503042325 | -48 | 228 | 1.6 | 8.0 | 14.33 | 0.00 | 0.00 | 60 | 1028.2 |
| 20260503041826 | -47 | 0 | 0.0 | 0.0 | 14.33 | 0.00 | 0.00 | 60 | 1028.2 |
| 20260503041325 | -48 | 0 | 0.0 | 0.0 | 14.33 | 0.00 | 0.00 | 61 | 1028.2 |
| 20260503040824 | -48 | 0 | 0.0 | 0.0 | 14.33 | 0.00 | 0.00 | 61 | 1028.1 |
| 20260503040324 | -48 | 297 | 1.6 | 11.3 | 14.33 | 0.00 | 0.00 | 63 | 1028.2 |
| 20260503035824 | -46 | 0 | 0.0 | 0.0 | 14.33 | 0.00 | 0.00 | 61 | 1028.3 |
| 20260503035324 | -48 | 0 | 0.0 | 0.0 | 14.33 | 0.00 | 0.00 | 62 | 1028.2 |
| 20260503034824 | -48 | 0 | 0.0 | 0.0 | 14.33 | 0.00 | 0.00 | 63 | 1028.2 |
| 20260503034325 | -48 | 274 | 8.0 | 22.5 | 14.33 | 0.00 | 0.00 | 62 | 1028.2 |
| 20260503033824 | -48 | 0 | 0.0 | 0.0 | 14.33 | 0.00 | 0.00 | 62 | 1028.2 |
| 20260503033326 | -48 | 0 | 0.0 | 0.0 | 14.33 | 0.00 | 0.00 | 62 | 1028.2 |
| 20260503032824 | -43 | 0 | 0.0 | 0.0 | 14.33 | 0.00 | 0.00 | 61 | 1028.3 |
| 20260503032324 | -48 | 0 | 0.0 | 0.0 | 14.33 | 0.00 | 0.00 | 61 | 1028.3 |
| 20260503031824 | -48 | 0 | 0.0 | 0.0 | 14.33 | 0.00 | 0.00 | 60 | 1028.3 |
| 20260503031324 | -45 | 0 | 0.0 | 0.0 | 14.33 | 0.00 | 0.00 | 60 | 1028.3 |
| 20260503030824 | -48 | 0 | 0.0 | 0.0 | 14.33 | 0.00 | 0.00 | 60 | 1028.3 |
| 20260503030325 | -48 | 143 | 8.0 | 16.1 | 14.33 | 0.00 | 0.00 | 60 | 1028.3 |
| 20260503025825 | -48 | 0 | 0.0 | 0.0 | 14.33 | 0.00 | 0.00 | 60 | 1028.4 |
| 20260503025325 | -48 | 0 | 0.0 | 0.0 | 14.33 | 0.00 | 0.00 | 60 | 1028.4 |
| 20260503024825 | -48 | 0 | 0.0 | 0.0 | 14.33 | 0.00 | 0.00 | 60 | 1028.4 |
| 20260503024325 | -48 | 0 | 0.0 | 0.0 | 14.33 | 0.00 | 0.00 | 60 | 1028.4 |
| 20260503023825 | -48 | 0 | 0.0 | 0.0 | 14.33 | 0.00 | 0.00 | 60 | 1028.5 |
| 20260503023325 | -48 | 0 | 0.0 | 0.0 | 14.33 | 0.00 | 0.00 | 60 | 1028.5 |
| 20260503022825 | -17 | 0 | 0.0 | 0.0 | 14.33 | 0.00 | 0.00 | 59 | 1028.6 |
| 20260503022325 | -48 | 0 | 0.0 | 0.0 | 14.33 | 0.00 | 0.00 | 59 | 1028.6 |
| 20260503021825 | -48 | 0 | 0.0 | 0.0 | 14.33 | 0.00 | 0.00 | 59 | 1028.6 |
| 20260503021325 | -48 | 0 | 0.0 | 0.0 | 14.33 | 0.00 | 0.00 | 59 | 1028.7 |
| 20260503020825 | -48 | 0 | 0.0 | 0.0 | 14.33 | 0.00 | 0.00 | 58 | 1028.5 |
| 20260503020325 | -48 | 0 | 0.0 | 0.0 | 14.33 | 0.00 | 0.00 | 58 | 1028.5 |
| 20260503015825 | -48 | 0 | 0.0 | 0.0 | 14.33 | 0.00 | 0.00 | 58 | 1028.5 |
| 20260503015325 | -48 | 0 | 0.0 | 0.0 | 14.33 | 0.00 | 0.00 | 58 | 1028.4 |
| 20260503014825 | -48 | 0 | 0.0 | 0.0 | 14.33 | 0.00 | 0.00 | 58 | 1028.4 |
| 20260503014325 | -48 | 0 | 0.0 | 0.0 | 14.33 | 0.00 | 0.00 | 57 | 1028.4 |
| 20260503013825 | -48 | 0 | 0.0 | 0.0 | 14.33 | 0.00 | 0.00 | 57 | 1028.4 |
| 20260503013325 | -48 | 0 | 0.0 | 0.0 | 14.33 | 0.00 | 0.00 | 58 | 1028.5 |
| 20260503012826 | -48 | 0 | 0.0 | 0.0 | 14.33 | 0.00 | 0.00 | 59 | 1028.5 |
| 20260503012325 | -48 | 0 | 0.0 | 0.0 | 14.33 | 0.00 | 0.00 | 58 | 1028.4 |
| 20260503011825 | -48 | 0 | 0.0 | 0.0 | 14.33 | 0.00 | 0.00 | 58 | 1028.4 |
| 20260503011325 | -48 | 0 | 0.0 | 0.0 | 14.33 | 0.00 | 0.00 | 57 | 1028.3 |
| 20260503010825 | -48 | 0 | 0.0 | 0.0 | 14.33 | 0.00 | 0.00 | 57 | 1028.3 |
| 20260503010325 | -48 | 0 | 0.0 | 0.0 | 14.33 | 0.00 | 0.00 | 57 | 1028.3 |
| 20260503005825 | -48 | 0 | 0.0 | 0.0 | 14.33 | 0.00 | 0.00 | 57 | 1028.3 |
| 20260503005325 | -48 | 0 | 0.0 | 0.0 | 14.33 | 0.00 | 0.00 | 57 | 1028.1 |
| 20260503004825 | -48 | 0 | 0.0 | 0.0 | 14.33 | 0.00 | 0.00 | 56 | 1028.1 |
| 20260503004325 | -48 | 0 | 0.0 | 0.0 | 14.33 | 0.00 | 0.00 | 57 | 1028.1 |
| 20260503003825 | -48 | 0 | 0.0 | 0.0 | 14.33 | 0.00 | 0.00 | 57 | 1028.0 |
| 20260503003325 | -48 | 0 | 0.0 | 0.0 | 14.33 | 0.00 | 0.00 | 56 | 1027.7 |
| 20260503002825 | -48 | 0 | 0.0 | 0.0 | 14.33 | 0.00 | 0.00 | 57 | 1027.9 |
| 20260503002325 | -47 | 0 | 0.0 | 0.0 | 14.33 | 0.00 | 0.00 | 56 | 1027.9 |
| 20260503001825 | -43 | 0 | 0.0 | 0.0 | 14.33 | 0.00 | 0.00 | 57 | 1027.9 |
| 20260503001325 | -42 | 0 | 0.0 | 0.0 | 14.33 | 0.00 | 0.00 | 57 | 1027.9 |
| 20260503000825 | -42 | 0 | 0.0 | 0.0 | 14.33 | 0.00 | 0.00 | 56 | 1028.0 |
| 20260503000325 | -41 | 0 | 0.0 | 0.0 | 14.33 | 0.00 | 0.00 | 56 | 1028.0 |
| 20260502235825 | -42 | 0 | 0.0 | 0.0 | 14.33 | 0.00 | 0.00 | 56 | 1027.9 |
| 20260502235325 | -42 | 0 | 0.0 | 0.0 | 14.33 | 0.00 | 0.00 | 55 | 1027.9 |
| 20260502234825 | -46 | 0 | 0.0 | 0.0 | 14.33 | 0.00 | 0.00 | 54 | 1027.9 |
| 20260502234325 | -36 | 0 | 0.0 | 0.0 | 14.33 | 0.00 | 0.00 | 54 | 1027.9 |
| 20260502233825 | -40 | 0 | 0.0 | 0.0 | 14.33 | 0.00 | 0.00 | 54 | 1027.9 |
| 20260502233325 | -35 | 0 | 0.0 | 0.0 | 14.33 | 0.00 | 0.00 | 54 | 1027.9 |
| 20260502232825 | -41 | 0 | 0.0 | 0.0 | 14.33 | 0.00 | 0.00 | 54 | 1027.9 |
| 20260502232325 | -41 | 0 | 0.0 | 0.0 | 14.33 | 0.00 | 0.00 | 55 | 1027.9 |
| 20260502231825 | -42 | 0 | 0.0 | 0.0 | 14.33 | 0.00 | 0.00 | 54 | 1027.6 |
| 20260502231325 | -38 | 0 | 0.0 | 0.0 | 14.33 | 0.00 | 0.00 | 53 | 1027.9 |
| 20260502230825 | -38 | 0 | 0.0 | 0.0 | 14.33 | 0.00 | 0.00 | 56 | 1027.9 |
| 20260502230325 | -37 | 0 | 0.0 | 0.0 | 14.33 | 0.00 | 0.00 | 57 | 1027.9 |
| 20260502225825 | -37 | 0 | 0.0 | 0.0 | 14.33 | 0.00 | 0.00 | 53 | 1027.9 |
| 20260502225325 | -35 | 0 | 0.0 | 0.0 | 14.33 | 0.00 | 0.00 | 57 | 1028.0 |
| 20260502224825 | -37 | 0 | 0.0 | 0.0 | 14.33 | 0.00 | 0.00 | 60 | 1028.0 |
| 20260502224325 | -41 | 0 | 0.0 | 0.0 | 14.33 | 0.00 | 0.00 | 59 | 1028.1 |
| 20260502223825 | -39 | 0 | 0.0 | 0.0 | 14.33 | 0.00 | 0.00 | 59 | 1028.1 |
| 20260502223326 | -38 | 0 | 0.0 | 0.0 | 14.33 | 0.00 | 0.00 | 58 | 1028.0 |
| 20260502222827 | -40 | 0 | 0.0 | 0.0 | 14.33 | 0.00 | 0.00 | 60 | 1028.2 |
| 20260502222325 | -38 | 0 | 0.0 | 0.0 | 14.33 | 0.00 | 0.00 | 57 | 1028.1 |
| 20260502221825 | -40 | 0 | 0.0 | 0.0 | 14.33 | 0.00 | 0.00 | 59 | 1028.1 |
| 20260502221325 | -37 | 0 | 0.0 | 0.0 | 14.33 | 0.00 | 0.00 | 59 | 1028.2 |
| 20260502220825 | -40 | 0 | 0.0 | 0.0 | 14.33 | 0.00 | 0.00 | 60 | 1028.1 |
| 20260502220326 | -40 | 0 | 0.0 | 0.0 | 14.33 | 0.00 | 0.00 | 60 | 1028.1 |
| 20260502215825 | -40 | 0 | 0.0 | 0.0 | 14.33 | 0.00 | 0.00 | 60 | 1028.2 |
| 20260502215325 | -38 | 0 | 0.0 | 0.0 | 14.33 | 0.00 | 0.00 | 62 | 1028.2 |
| 20260502214825 | -35 | 0 | 0.0 | 0.0 | 14.33 | 0.00 | 0.00 | 63 | 1028.3 |
| 20260502214325 | -38 | 0 | 0.0 | 0.0 | 14.33 | 0.00 | 0.00 | 64 | 1028.3 |
| 20260502213825 | -38 | 304 | 0.0 | 4.8 | 14.33 | 0.00 | 0.00 | 62 | 1028.2 |
| 20260502213325 | -36 | 0 | 0.0 | 0.0 | 14.33 | 0.00 | 0.00 | 65 | 1028.1 |
| 20260502212825 | -35 | 0 | 0.0 | 0.0 | 14.33 | 0.00 | 0.00 | 65 | 1028.0 |
| 20260502212327 | -40 | 0 | 0.0 | 0.0 | 14.33 | 0.00 | 0.00 | 64 | 1028.3 |